Weather observations for the past three days for
Pauls Valley, Pauls Valley Municipal Airport
Imperial (Metric)
Date Time (cdt) Wind (mph) Vis. (mi.) Weather Sky Cond. Temperature (ºF) Relative Humidity Wind Chill (°F) Heat Index (°F) Pressure Precipitation (in)
Air Dwpt 6 hour altimeter (in) sea level (mb) 1 hr 3 hr 6 hr
Max. Min.
21 02:15 Calm 10.00 Fair CLR 74.7 72.1 92% 30.17 0.0
21 01:55 Calm 10.00 Fair CLR 75.2 72 90% 75 30.18 0.0
21 01:35 Calm 10.00 Fair CLR 75.4 72.1 90% 75 30.18 0.0
21 01:15 Calm 10.00 Fair CLR 75.6 72.1 89% 75 30.18 0.0
21 00:55 SE 3 10.00 Fair CLR 74.8 72.1 87.8 74.3 91% 30.17 0.0
21 00:35 Calm 10.00 Fair CLR 75 72.1 91% 74 30.17 0.0
21 00:15 Calm 10.00 Fair CLR 75.6 71.6 88% 75 30.17 0.0
20 23:55 Calm 10.00 Fair CLR 74.3 71.6 91% 30.16 0.0
20 23:35 Calm 10.00 Fair CLR 76.5 71.6 85% 77 30.16 0.0
20 23:15 Calm 10.00 Fair CLR 77 71.4 83% 78 30.16 0.0
20 22:55 Calm 10.00 Fair CLR 77.2 71.2 82% 79 30.16 0.0
20 22:35 Calm 10.00 Fair CLR 77.4 71.2 82% 79 30.16 0.0
20 22:15 Calm 10.00 Fair CLR 78.3 71.1 79% 81 30.15 0.0
20 21:55 Calm 10.00 Fair CLR 78.8 71.1 77% 82 30.15 0.0
20 21:35 E 3 10.00 Fair CLR 79.5 70.9 75% 83 30.14 0.0
20 21:15 SE 3 10.00 Fair CLR 80.2 70.9 73% 84 30.13 0.0
20 20:55 Calm 10.00 Fair CLR 81.3 70.9 71% 85 30.13 0.0
20 20:35 SE 3 10.00 Partly Cloudy SCT043 SCT049 SCT055 82.4 70.7 68% 87 30.13 0.0
20 20:15 SE 3 10.00 Mostly Cloudy SCT043 SCT050 BKN065 83.3 69.8 64% 87 30.13 0.0
20 19:55 SE 3 10.00 Fair CLR 83.8 69.1 61% 88 30.13 0.0
20 19:35 SE 5 10.00 Fair CLR 84.6 69.1 60% 88 30.13 0.0
20 19:15 SE 6 10.00 Partly Cloudy SCT046 86.2 69.8 58% 91 30.13 0.0
20 18:55 SE 5 10.00 Partly Cloudy SCT046 88.2 69.1 89.2 84.6 53% 93 30.13 0.0
20 18:35 SE 3 10.00 Partly Cloudy SCT046 87.4 69.6 56% 92 30.13 0.0
20 18:15 SE 3 10.00 Fair CLR 87.1 70 57% 92 30.14 0.0
20 17:55 E 6 10.00 Partly Cloudy SCT041 SCT060 SCT085 86.2 70 59% 91 30.14 0.0
20 17:35 SE 5 10.00 Partly Cloudy SCT041 SCT060 89.1 70.9 55% 95 30.15 0.0
20 17:15 E 5 10.00 Partly Cloudy SCT085 86.5 70.3 59% 92 30.16 0.0
20 16:55 E 6 10.00 Mostly Cloudy SCT042 BKN085 86.5 69.8 58% 91 30.17 0.0
20 16:35 SE 3 10.00 Fair CLR 87.8 69.4 55% 92 30.17 0.0
20 16:15 E 8 10.00 Partly Cloudy SCT085 89.1 70.3 54% 95 30.18 0.0
20 15:55 SE 7 10.00 Fair CLR 88.2 69.1 53% 93 30.18 0.0
20 15:35 SE 7 10.00 Partly Cloudy SCT042 SCT048 88.7 68.9 52% 93 30.19 0.0
20 15:15 SE 6 10.00 Partly Cloudy SCT040 SCT048 SCT080 87.3 70.2 57% 92 30.19 0.0
20 14:55 SE 6 10.00 Partly Cloudy SCT040 BKN047 SCT060 87.6 70.2 56% 93 30.19 0.0
20 14:35 S 3 10.00 Mostly Cloudy BKN040 BKN047 BKN060 88 70.2 56% 93 30.2 0.0
20 14:15 S 3 10.00 Partly Cloudy SCT038 SCT050 SCT060 86.9 69.8 57% 92 30.21 0.0
20 13:55 E 3 10.00 Partly Cloudy SCT049 SCT060 SCT070 86.7 70.2 58% 92 30.21 0.0
20 13:35 E 5 10.00 Mostly Cloudy SCT035 SCT043 BKN065 86.7 72.1 62% 93 30.22 0.0
20 13:15 SE 3 10.00 Mostly Cloudy SCT030 BKN035 BKN048 84.7 70.9 63% 90 30.22 0.0
20 12:55 E 5 10.00 Partly Cloudy SCT028 SCT034 85.8 72.1 85.8 71.1 64% 92 30.23 0.0
20 12:35 S 3 10.00 Mostly Cloudy SCT026 BKN031 BKN040 84.2 72.5 68% 90 30.23 0.0
20 12:15 E 3 10.00 Partly Cloudy SCT024 SCT050 82.9 72.1 70% 88 30.23 0.0
20 11:55 SE 3 10.00 Partly Cloudy SCT022 82.9 72 70% 88 30.24 0.0
20 11:15 SE 5 10.00 Mostly Cloudy BKN022 BKN034 81.1 72.7 76% 86 30.25 0.0
20 10:55 SE 5 10.00 Overcast BKN019 BKN027 OVC034 79.3 72.5 80% 83 30.24 0.0
20 10:35 SE 5 10.00 Overcast OVC017 78.3 72.9 84% 81 30.24 0.0
20 10:15 SE 5 10.00 Overcast OVC017 77.5 72.7 85% 79 30.24 0.0
20 09:55 SE 3 10.00 Overcast OVC015 77.4 72.7 86% 79 30.24 0.0
20 09:35 SE 5 10.00 Overcast OVC015 78.3 72.7 83% 81 30.24 0.0
20 09:15 Calm 10.00 Overcast OVC015 76.6 73 89% 77 30.23 0.0
20 08:55 SE 6 10.00 Overcast OVC015 75.6 72.7 91% 75 30.23 0.0
20 08:35 Calm 10.00 Mostly Cloudy BKN017 75 72.7 92% 74 30.21 0.0
20 08:15 Calm 10.00 Partly Cloudy SCT026 73.6 71.8 94% 30.2 0.0
20 07:55 E 3 10.00 Partly Cloudy SCT025 72.9 71.4 95% 30.2 0.0
20 07:35 E 3 10.00 Partly Cloudy SCT023 72.1 71.1 96% 30.19 0.0
20 07:15 Calm 10.00 Partly Cloudy SCT026 71.6 71.1 98% 30.19 0.0
20 06:55 Calm 10.00 Mostly Cloudy BKN026 70.9 70.9 72.5 69.8 100% 30.19 0.0
20 06:35 Calm 10.00 Partly Cloudy SCT026 70.3 70.3 100% 30.19 0.0
20 06:15 Calm 10.00 Fair CLR 70.3 69.6 98% 30.18 0.0
20 05:55 Calm 10.00 Fair CLR 70.9 69.8 96% 30.17 0.0
20 05:35 Calm 10.00 Fair CLR 71.2 69.8 95% 30.17 0.0
20 05:15 Calm 10.00 Fair CLR 71.6 69.8 94% 30.16 0.0
20 04:55 Calm 10.00 Fair CLR 71.1 69.4 95% 30.16 0.0
20 04:35 Calm 10.00 Fair CLR 71.1 69.3 94% 30.16 0.0
20 04:15 Calm 10.00 Fair CLR 70.9 69.1 94% 30.16 0.0
20 03:55 E 3 10.00 Fair CLR 70.7 69.1 95% 30.15 0.0
20 03:35 Calm 10.00 Fair CLR 71.1 69.1 94% 30.15 0.0
20 03:15 NE 3 10.00 Fair CLR 70.7 68.9 94% 30.15 0.0
20 02:55 Calm 10.00 Fair CLR 70.7 68.9 94% 30.15 0.0
20 02:35 NE 3 10.00 Fair CLR 70.5 68.9 95% 30.15 0.0
20 02:15 Calm 10.00 Partly Cloudy SCT120 70.2 68.9 96% 30.16 0.0
20 01:55 Calm 10.00 Overcast OVC120 70.5 69.1 95% 30.16 0.0
20 01:35 Calm 10.00 Mostly Cloudy BKN120 70.7 68.4 92% 30.17 0.0
20 01:15 Calm 10.00 Fair CLR 72.3 68 86% 30.17 0.0
20 00:55 Calm 10.00 Fair CLR 72.3 68.4 83.3 70.7 87% 30.18 0.0
20 00:35 Calm 10.00 Partly Cloudy SCT110 70.7 68.2 92% 30.17 0.0
20 00:15 Calm 10.00 Partly Cloudy SCT110 73.4 67.8 83% 30.18 0.0
19 23:55 Calm 10.00 Partly Cloudy SCT110 71.8 68 88% 30.17 0.0
19 23:35 Calm 10.00 Partly Cloudy SCT110 74.3 67.3 79% 30.17 0.0
19 23:15 E 3 10.00 Partly Cloudy SCT100 74.5 67.1 78% 30.17 0.0
19 22:55 E 3 10.00 Partly Cloudy SCT095 74.3 67.1 78% 30.16 0.0
19 22:35 Calm 10.00 Mostly Cloudy BKN095 75.9 67.1 74% 77 30.16 0.0
19 22:15 Calm 10.00 Partly Cloudy SCT095 75.7 67.1 75% 77 30.15 0.0
19 21:55 Calm 10.00 Fair CLR 76.3 67.1 73% 78 30.14 0.0
19 21:35 Calm 10.00 Fair CLR 77 66.6 70% 79 30.13 0.0
19 21:15 E 3 10.00 Fair CLR 77.9 66.6 68% 80 30.13 0.0
19 20:55 E 5 10.00 Fair CLR 78.8 66.6 66% 81 30.12 0.0
19 20:35 SE 5 10.00 Fair CLR 80.1 67.1 65% 82 30.12 0.0
19 20:15 E 5 10.00 Fair CLR 81.1 67.1 62% 84 30.11 0.0
19 19:55 SE 5 10.00 Fair CLR 82.6 66.2 58% 85 30.11 0.0
19 19:35 SE 6 10.00 Partly Cloudy SCT060 83.3 68.7 62% 87 30.1 0.0
19 19:15 E 7 10.00 Mostly Cloudy SCT042 BKN050 BKN055 82.2 70 67% 86 30.1 0.0
19 18:55 SE 9 7.00 Overcast OVC044 83.8 68.9 88.7 83.5 61% 87 30.09 0.0
19 18:35 SE 6 7.00 Overcast BKN046 OVC100 86.4 67.5 53% 89 30.08 0.0
19 18:15 E 6 7.00 Overcast OVC090 86 66.4 52% 88 30.09 0.0
19 17:55 E 8 10.00 Overcast SCT049 OVC090 85.3 66 53% 88 30.09 0.0
19 17:35 SE 7 10.00 Mostly Cloudy BKN090 84.9 65.5 52% 87 30.09 0.0
19 17:15 SE 6 10.00 Fair CLR 86 64.4 49% 87 30.09 0.0
19 16:55 SE 7 10.00 Fair CLR 87.1 66.7 51% 90 30.09 0.0
19 16:35 SE 9 10.00 Fair CLR 87.4 66.6 50% 90 30.09 0.0
19 16:15 SE 8 10.00 Mostly Cloudy SCT045 BKN070 87.8 65.8 48% 90 30.09 0.0
19 15:55 SE 5 10.00 Mostly Cloudy BKN070 BKN090 BKN100 87.1 66.9 51% 90 30.1 0.0
19 15:35 SE 8 10.00 Partly Cloudy SCT048 SCT070 SCT080 88.5 67.1 49% 92 30.1 0.0
19 15:15 SE 6 10.00 Partly Cloudy SCT045 SCT050 87.1 66.7 51% 90 30.1 0.0
19 14:55 SE 8 10.00 Mostly Cloudy SCT045 BKN050 BKN070 86.2 67.3 53% 89 30.1 0.0
19 14:35 SE 8 10.00 Mostly Cloudy BKN043 BKN050 BKN070 86.2 66.7 52% 89 30.11 0.0
19 14:15 SE 7 10.00 Mostly Cloudy SCT043 BKN050 85.6 68 56% 89 30.12 0.0
19 13:55 E 9 10.00 Partly Cloudy SCT040 SCT048 SCT055 85.8 67.1 54% 89 30.12 0.0
19 13:35 E 9 10.00 Mostly Cloudy BKN040 BKN046 BKN055 85.1 68.4 57% 89 30.13 0.0
19 13:15 E 6 10.00 Overcast BKN040 BKN048 OVC055 83.5 68.4 60% 87 30.13 0.0
19 12:55 E 5 10.00 Mostly Cloudy BKN040 BKN048 84.4 67.3 85.3 72 57% 87 30.13 0.0
19 12:35 SE 7 10.00 Mostly Cloudy BKN038 BKN044 84.9 68.2 57% 88 30.14 0.0
19 12:15 S 3 10.00 Mostly Cloudy SCT036 SCT042 BKN048 83.5 67.6 59% 86 30.14 0.0
19 11:55 SE 6 10.00 Partly Cloudy SCT034 SCT110 84.2 67.8 58% 87 30.14 0.0
19 11:35 Calm 10.00 Mostly Cloudy BKN034 BKN110 82.2 68.4 63% 85 30.13 0.0
19 11:15 E 5 10.00 Mostly Cloudy BKN030 82 68.7 64% 85 30.13 0.0
19 10:55 Calm 10.00 Partly Cloudy SCT026 SCT033 81.7 68.9 65% 85 30.13 0.0
19 10:35 S 6 10.00 Mostly Cloudy BKN024 80.6 69.6 69% 84 30.13 0.0
19 10:15 S 5 10.00 Mostly Cloudy BKN022 79.9 70 72% 83 30.13 0.0
19 09:55 SE 6 10.00 Partly Cloudy SCT018 SCT023 79.3 70.9 75% 82 30.13 0.0
19 09:35 S 5 10.00 Mostly Cloudy BKN016 BKN022 77.9 70.3 78% 80 30.13 0.0
19 09:15 SE 6 10.00 Mostly Cloudy BKN016 77.9 71.1 80% 80 30.12 0.0
19 08:55 SE 7 10.00 Mostly Cloudy BKN016 76.6 70.7 82% 78 30.13 0.0
19 08:35 SE 6 10.00 Partly Cloudy SCT011 75.2 70.5 85% 75 30.12 0.0
19 08:15 SE 6 10.00 Partly Cloudy SCT011 74.8 70.3 86% 30.11 0.0
19 07:55 SE 6 10.00 Fair CLR 73.6 69.4 87% 30.11 0.0
19 07:35 SE 3 10.00 Fair CLR 72.9 68.9 87% 30.1 0.0
19 07:15 E 3 10.00 Fair CLR 72.5 68.7 88% 30.09 0.0
19 06:55 SE 3 10.00 Fair CLR 71.8 68.4 77.5 71.1 89% 30.08 0.0
19 06:35 E 5 10.00 Fair CLR 71.2 68 90% 30.06 0.0
19 06:15 E 5 10.00 Fair CLR 71.1 68 90% 30.05 0.0
19 05:55 E 3 10.00 Fair CLR 71.6 67.6 87% 30.04 0.0
19 05:35 Calm 10.00 Fair CLR 71.8 67.6 87% 30.03 0.0
19 05:15 SE 5 10.00 Fair CLR 72.5 67.5 84% 30.01 0.0
19 04:55 SE 6 10.00 Fair CLR 72.9 67.6 84% 29.99 0.0
19 04:35 SE 7 10.00 Fair CLR 73.4 68 83% 29.99 0.0
19 04:15 SE 8 10.00 Fair CLR 74.1 68.2 82% 29.98 0.0
19 03:55 SE 9 10.00 Fair CLR 74.3 68.7 83% 29.97 0.0
19 03:35 SE 8 10.00 Fair CLR 74.7 68.9 82% 29.96 0.0
19 03:15 SE 7 10.00 Fair CLR 74.8 68.9 82% 29.96 0.0
19 02:55 SE 9 10.00 Fair CLR 75.6 69.3 81% 76 29.96 0.0
19 02:35 SE 7 10.00 Fair CLR 76.1 69.4 80% 77 29.96 0.0
19 02:15 SE 8 10.00 Fair CLR 76.3 69.8 80% 77 29.96 0.0
19 01:55 SE 9 G 16 10.00 Fair CLR 76.8 69.8 79% 78 29.96 0.0
19 01:35 SE 10 G 17 10.00 Fair CLR 77.2 69.8 78% 79 29.96 0.0
19 01:15 SE 10 G 17 10.00 Fair CLR 77.5 69.4 76% 79 29.96 0.0
19 00:55 SE 10 G 16 10.00 Fair CLR 77.4 69.1 86 77.4 76% 79 29.96 0.0
19 00:35 SE 8 10.00 Fair CLR 77.5 68.9 75% 79 29.97 0.0
19 00:15 SE 8 10.00 Fair CLR 77.4 68.9 75% 79 29.97 0.0
18 23:55 E 3 10.00 Fair CLR 77.9 68.9 74% 80 29.97 0.0
18 23:35 SE 5 10.00 Fair CLR 78.6 68.4 71% 81 29.96 0.0
18 23:15 SE 8 10.00 Fair CLR 79.7 68.2 68% 82 29.95 0.0
18 22:55 SE 8 10.00 Fair CLR 80.1 68 67% 83 29.94 0.0
18 22:35 SE 10 10.00 Fair CLR 80.6 68 66% 83 29.92 0.0
18 22:15 SE 10 G 17 10.00 Fair CLR 80.8 68 65% 84 29.91 0.0
18 21:55 SE 9 10.00 Fair CLR 81.3 68 64% 84 29.89 0.0
18 21:35 SE 9 10.00 Fair CLR 81.5 68 64% 84 29.88 0.0
18 21:15 SE 8 10.00 Fair CLR 82.2 68 62% 85 29.87 0.0
18 20:55 SE 9 10.00 Fair CLR 82.8 67.6 60% 86 29.86 0.0
18 20:35 SE 9 10.00 Fair CLR 83.3 67.3 59% 86 29.85 0.0
18 20:15 SE 9 10.00 Fair CLR 84.2 67.3 57% 87 29.85 0.0
18 19:55 SE 8 10.00 Fair CLR 84.7 67.6 57% 88 29.84 0.0
18 19:35 SE 13 G 20 10.00 Fair CLR 86 66.2 52% 88 29.84 0.0
18 19:15 SE 13 G 18 10.00 Partly Cloudy SCT046 85.3 67.5 55% 88 29.84 0.0
18 18:55 SE 16 G 21 10.00 Partly Cloudy SCT046 SCT050 86 68.2 88.7 80.6 55% 90 29.83 0.0
18 18:35 SE 13 G 22 10.00 Partly Cloudy SCT044 86.9 68.4 54% 91 29.82 0.0
18 18:15 SE 16 G 26 10.00 Partly Cloudy SCT044 SCT050 87.3 68.9 55% 91 29.83 0.0
18 17:55 S 14 G 21 10.00 Partly Cloudy SCT046 87.8 69.8 55% 93 29.82 0.0
18 17:35 SE 14 G 22 10.00 Partly Cloudy SCT046 88.7 69.3 53% 93 29.83 0.0
18 17:15 SE 15 G 24 10.00 Partly Cloudy SCT044 88.5 69.4 53% 93 29.83 0.0
18 16:55 SE 18 G 25 10.00 Partly Cloudy SCT044 88.5 69.8 54% 94 29.83 0.0
18 16:35 SE 16 G 22 10.00 Partly Cloudy SCT044 88.7 69.8 54% 94 29.84 0.0
18 16:15 S 13 G 21 10.00 Fair CLR 88 69.4 54% 93 29.85 0.0
18 15:55 S 12 G 22 10.00 Fair CLR 88.2 71.1 57% 94 29.85 0.0
18 15:35 S 10 G 22 10.00 Partly Cloudy SCT070 86.9 70.7 59% 92 29.86 0.0
18 15:15 S 9 G 17 10.00 Overcast OVC070 85.8 70.9 61% 91 29.86 0.0
18 14:55 S 8 10.00 Overcast SCT042 OVC060 83.7 70.9 66% 88 29.88 0.0
18 14:35 S 8 10.00 Overcast SCT040 SCT047 OVC060 82.6 70.7 67% 87 29.88 0.0
18 14:15 S 9 10.00 Overcast OVC050 82.4 70.3 67% 87 29.88 0.0
18 13:55 S 9 10.00 Overcast SCT037 SCT043 OVC050 81.5 70.7 70% 85 29.88 0.0
18 13:35 S 12 G 17 10.00 Overcast SCT035 SCT043 OVC055 81.5 70.9 70% 86 29.88 0.0
18 13:15 S 8 10.00 Overcast SCT032 BKN049 OVC055 81 71.6 73% 85 29.89 0.0
18 12:55 S 8 10.00 Overcast SCT029 SCT034 OVC047 80.6 71.4 80.6 75.2 74% 85 29.89 0.0
18 12:35 S 12 G 16 10.00 Overcast BKN032 OVC045 79.9 70.9 74% 83 29.88 0.0
18 12:15 S 10 10.00 Overcast BKN032 OVC041 79.7 70.7 74% 83 29.88 0.0
18 11:55 S 9 G 17 10.00 Overcast SCT028 BKN034 OVC041 80.1 70.5 73% 83 29.88 0.0
18 11:35 S 10 G 17 10.00 Overcast SCT022 BKN028 OVC036 79.7 70.7 74% 83 29.88 0.0
18 11:15 S 7 10.00 Overcast SCT025 BKN030 OVC038 79 70.7 76% 82 29.88 0.0
18 10:55 S 14 G 23 10.00 Overcast SCT025 OVC036 79.2 70.2 74% 82 29.88 0.0
18 10:35 S 10 G 22 10.00 Overcast BKN025 OVC033 78.6 70.2 75% 81 29.87 0.0
18 10:15 S 9 G 20 10.00 Overcast BKN023 OVC030 78.1 70.2 77% 80 29.87 0.0
18 09:55 S 12 G 24 10.00 Overcast BKN023 OVC032 78.8 70.2 75% 81 29.87 0.0
18 09:35 S 15 G 24 10.00 Overcast BKN026 OVC032 78.6 70.2 75% 81 29.86 0.0
18 09:15 S 14 G 21 10.00 Overcast OVC024 77.4 69.3 76% 79 29.86 0.0
18 08:55 S 10 G 20 10.00 Overcast OVC024 77.5 69.1 75% 79 29.86 0.0
18 08:35 S 10 G 21 10.00 Overcast OVC026 77.2 68.5 75% 79 29.86 0.0
18 08:15 S 12 G 17 10.00 Mostly Cloudy BKN026 76.1 68 76% 77 29.85 0.0
18 07:55 S 8 G 18 10.00 Fair CLR 76.1 68 76% 77 29.84 0.0
18 07:35 SE 12 G 24 10.00 Fair CLR 75.7 67.5 76% 77 29.84 0.0
18 07:15 S 10 G 18 10.00 Fair CLR 75.4 67.3 76% 77 29.84 0.0
18 06:55 S 9 G 21 10.00 Fair CLR 75.2 67.1 79.9 74.8 76% 76 29.84 0.0
18 06:35 S 8 10.00 Fair CLR 74.8 67.5 78% 29.84 0.0
18 06:15 S 10 10.00 Fair CLR 75.2 68 78% 76 29.83 0.0
18 05:55 S 9 10.00 Fair CLR 75.4 68.2 78% 76 29.83 0.0
18 05:35 S 12 G 18 10.00 Fair CLR 76.1 68.2 77% 77 29.82 0.0
18 05:15 S 8 10.00 Fair CLR 76.1 68.9 78% 77 29.82 0.0
18 04:55 S 7 G 16 10.00 Fair CLR 76.5 69.3 79% 78 29.81 0.0
18 04:35 S 9 G 16 10.00 Fair CLR 76.6 70 80% 78 29.8 0.0
18 04:15 S 13 G 20 10.00 Fair CLR 77 70.3 80% 79 29.8 0.0
18 03:55 S 12 G 21 10.00 Partly Cloudy SCT028 77.4 70.9 81% 79 29.8 0.0
18 03:35 S 12 G 22 10.00 Partly Cloudy SCT029 77.9 70.9 79% 80 29.79 0.0
18 03:15 S 10 G 18 10.00 Mostly Cloudy BKN028 BKN032 78.3 71.1 79% 81 29.79 0.0
18 02:55 S 10 10.00 Overcast OVC028 78.4 71.8 80% 81 29.79 0.0
18 02:35 S 9 G 16 10.00 Mostly Cloudy BKN026 78.4 71.8 80% 81 29.79 0.0
Date Time (cdt) Wind (mph) Vis. (mi.) Weather Sky Cond. Air Dwpt Max. Min. Relative Humidity Wind Chill (°F) Heat Index (°F) altimeter (in) sea level (mb) 1 hr 3 hr 6 hr
6 hour
Temperature (ºF) Pressure Precipitation (in)